QPF
0.00 0.00 0.00 0.00 0.00 0.00 0.00 0.00 0.00 0.00 0.00 0.00 0.00 0.00 0.00 0.00 0.00 0.00 0.00 0.00 0.00 0.00 0.00 0.00 0.00 0.00 0.00 0.00 0.00 0.00 0.01 0.00 0.00 0.00 0.00 0.00 0.00 0.00 0.00 0.00 0.00 0.00 0.00 0.00
0.00 0.00 0.00 0.00 0.00 0.00 0.00 0.00 0.00 0.00 0.00 0.00 0.00 0.00 0.00 0.00 0.00 0.00 0.00 0.00 0.00 0.00 0.00 0.00 0.00 0.00 0.00 0.00 0.00 0.00 0.00 0.00 0.00 0.00 0.00 0.00 0.00 0.00 0.00 0.00 0.00 0.00 0.00 0.00
0.00 0.00 0.00 0.00 0.00 0.00 0.00 0.00 0.00 0.00 0.00 0.00 0.00 0.00 0.00 0.00 0.00 0.00 0.00 0.00 0.00 0.00 0.00 0.00 0.00 0.00 0.00 0.00 0.00 0.00 0.00 0.00 0.00 0.00 0.00 0.00 0.00 0.00 0.00 0.00 0.00 0.00 0.00 0.00
0.00 0.00 0.00 0.00 0.00 0.00 0.00 0.00 0.00 0.00 0.00 0.00 0.00 0.00 0.00 0.00 0.00 0.00 0.00 0.00 0.00 0.00 0.00 0.00 0.00 0.00 0.00 0.00 0.00 0.00 0.00 0.00 0.00 0.00 0.00 0.00 0.00 0.00 0.00 0.00 0.00 0.00 0.00 0.00
0.00 0.00 0.00 0.00 0.00 0.00 0.00 0.00 0.00 0.00 0.00 0.00 0.00 0.00 0.00 0.00 0.00 0.00 0.00 0.00 0.00 0.00 0.00 0.00 0.00 0.00 0.00 0.00 0.00 0.00 0.00 0.00 0.00 0.01 0.00 0.00 0.00 0.00 0.00 0.00 0.00 0.00 0.00 0.00
0.00 0.00 0.00 0.00 0.00 0.00 0.00 0.00 0.00 0.00 0.00 0.00 0.00 0.00 0.00 0.00 0.00 0.00 0.00 0.00 0.00 0.00 0.00 0.00 0.00 0.00 0.00 0.00 0.00 0.00 0.00 0.00 0.00 0.01 0.02 0.01 0.00 0.00 0.00 0.00 0.00 0.00 0.00 0.00
0.00 0.00 0.00 0.00 0.00 0.00 0.00 0.00 0.00 0.00 0.00 0.00 0.00 0.00 0.00 0.00 0.00 0.00 0.00 0.00 0.00 0.00 0.00 0.00 0.00 0.00 0.00 0.00 0.00 0.01 0.02 0.03 0.00 0.00 0.01 0.02 0.02 0.01 0.00 0.00 0.00 0.00 0.00 0.00
0.00 0.00 0.00 0.00 0.00 0.00 0.01 0.00 0.00 0.00 0.00 0.00 0.00 0.00 0.00 0.00 0.00 0.00 0.00 0.00 0.00 0.00 0.00 0.00 0.00 0.00 0.00 0.00 0.00 0.01 0.04 0.03 0.00 0.00 0.01 0.03 0.03 0.01 0.00 0.00 0.00 0.00 0.00 0.00
0.00 0.00 0.00 0.00 0.00 0.00 0.00 0.00 0.00 0.01 0.00 0.00 0.00 0.00 0.00 0.00 0.00 0.00 0.00 0.00 0.00 0.00 0.00 0.00 0.00 0.00 0.00 0.00 0.00 0.00 0.02 0.01 0.00 0.00 0.00 0.01 0.02 0.01 0.01 0.00 0.00 0.00 0.00 0.00
0.00 0.00 0.00 0.00 0.00 0.00 0.00 0.00 0.01 0.01 0.00 0.00 0.00 0.00 0.00 0.00 0.00 0.00 0.00 0.00 0.00 0.00 0.00 0.00 0.00 0.00 0.00 0.00 0.00 0.00 0.02 0.02 0.01 0.00 0.00 0.00 0.00 0.01 0.02 0.01 0.01 0.01 0.00 0.00
0.00 0.01 0.00 0.00 0.00 0.00 0.00 0.00 0.00 0.00 0.00 0.00 0.00 0.00 0.00 0.00 0.00 0.00 0.00 0.00 0.00 0.00 0.00 0.00 0.00 0.00 0.00 0.00 0.01 0.03 0.03 0.02 0.00 0.00 0.00 0.00 0.00 0.00 0.00 0.01 0.01 0.02 0.01 0.01
0.00 0.01 0.00 0.00 0.00 0.00 0.00 0.00 0.00 0.01 0.00 0.00 0.00 0.00 0.00 0.00 0.00 0.00 0.00 0.00 0.00 0.00 0.00 0.00 0.00 0.00 0.00 0.00 0.00 0.02 0.03 0.04 0.03 0.02 0.03 0.01 0.00 0.00 0.00 0.00 0.00 0.01 0.01 0.01
0.01 0.00 0.00 0.00 0.00 0.00 0.00 0.00 0.00 0.00 0.00 0.01 0.01 0.00 0.00 0.00 0.00 0.00 0.00 0.00 0.00 0.00 0.01 0.01 0.01 0.00 0.00 0.00 0.01 0.01 0.01 0.01 0.00 0.01 0.02 0.01 0.00 0.00 0.00 0.00 0.00 0.00 0.00 0.00
0.00 0.00 0.00 0.01 0.00 0.00 0.00 0.00 0.00 0.00 0.00 0.00 0.00 0.00 0.00 0.00 0.00 0.00 0.00 0.00 0.00 0.00 0.01 0.01 0.02 0.03 0.01 0.00 0.00 0.00 0.00 0.00 0.00 0.00 0.00 0.00 0.00 0.00 0.00 0.00 0.00 0.01 0.00 0.00
0.00 0.00 0.00 0.00 0.00 0.00 0.00 0.00 0.00 0.00 0.00 0.00 0.00 0.00 0.00 0.00 0.00 0.00 0.00 0.00 0.00 0.00 0.01 0.02 0.02 0.03 0.01 0.00 0.00 0.00 0.00 0.00 0.00 0.00 0.00 0.00 0.00 0.00 0.00 0.00 0.00 0.00 0.00 0.00
0.00 0.00 0.00 0.00 0.00 0.00 0.00 0.00 0.00 0.00 0.00 0.00 0.00 0.00 0.00 0.00 0.00 0.00 0.00 0.00 0.00 0.00 0.00 0.00 0.01 0.02 0.01 0.00 0.00 0.00 0.00 0.00 0.00 0.00 0.00 0.00 0.00 0.00 0.00 0.00 0.00 0.00 0.00 0.00
0.00 0.00 0.00 0.00 0.00 0.00 0.00 0.00 0.00 0.01 0.00 0.00 0.00 0.00 0.00 0.00 0.00 0.00 0.00 0.00 0.00 0.00 0.00 0.00 0.00 0.00 0.00 0.00 0.00 0.00 0.00 0.00 0.00 0.00 0.00 0.00 0.00 0.00 0.00 0.00 0.00 0.00 0.00 0.00
0.00 0.00 0.00 0.00 0.00 0.00 0.00 0.00 0.00 0.00 0.00 0.00 0.00 0.00 0.00 0.00 0.00 0.00 0.00 0.00 0.00 0.00 0.00 0.00 0.00 0.00 0.00 0.00 0.00 0.00 0.00 0.00 0.00 0.00 0.00 0.00 0.00 0.00 0.00 0.00 0.00 0.00 0.00 0.00
0.00 0.00 0.00 0.00 0.00 0.00 0.00 0.00 0.00 0.00 0.00 0.00 0.00 0.00 0.00 0.00 0.00 0.00 0.00 0.00 0.00 0.00 0.00 0.00 0.00 0.00 0.00 0.00 0.00 0.00 0.00 0.00 0.00 0.00 0.00 0.00 0.00 0.00 0.00 0.00 0.00 0.00 0.00 0.00
0.00 0.00 0.00 0.00 0.00 0.00 0.00 0.00 0.00 0.00 0.00 0.00 0.00 0.00 0.00 0.00 0.00 0.00 0.00 0.00 0.00 0.00 0.00 0.00 0.00 0.00 0.00 0.00 0.00 0.00 0.00 0.00 0.00 0.00 0.00 0.00 0.00 0.00 0.00 0.00 0.00 0.00 0.00 0.00
0.00 0.00 0.00 0.00 0.00 0.00 0.00 0.00 0.00 0.00 0.00 0.00 0.00 0.00 0.00 0.00 0.00 0.00 0.00 0.00 0.00 0.00 0.00 0.00 0.00 0.00 0.00 0.00 0.00 0.00 0.00 0.00 0.00 0.00 0.00 0.00 0.00 0.00 0.00 0.00 0.00 0.00 0.00 0.00
0.00 0.00 0.00 0.00 0.00 0.00 0.00 0.00 0.00 0.00 0.00 0.00 0.00 0.00 0.00 0.00 0.00 0.00 0.00 0.00 0.00 0.00 0.00 0.00 0.00 0.00 0.00 0.00 0.00 0.00 0.00 0.00 0.00 0.00 0.00 0.00 0.00 0.00 0.00 0.00 0.00 0.00 0.00 0.00
0.00 0.00 0.00 0.00 0.00 0.00 0.00 0.00 0.00 0.00 0.00 0.00 0.00 0.00 0.00 0.00 0.00 0.00 0.00 0.00 0.00 0.00 0.00 0.00 0.00 0.00 0.00 0.00 0.00 0.00 0.00 0.00 0.00 0.00 0.00 0.00 0.00 0.00 0.00 0.00 0.00 0.00 0.00 0.00
0.00 0.00 0.00 0.00 0.00 0.00 0.00 0.00 0.00 0.00 0.00 0.00 0.00 0.00 0.00 0.00 0.00 0.00 0.00 0.00 0.00 0.00 0.00 0.00 0.00 0.00 0.00 0.00 0.00 0.00 0.00 0.00 0.00 0.00 0.00 0.00 0.00 0.00 0.00 0.00 0.00 0.00 0.00 0.00
0.00 0.00 0.00 0.00 0.00 0.00 0.00 0.00 0.00 0.00 0.00 0.00 0.00 0.00 0.00 0.00 0.00 0.00 0.00 0.00 0.00 0.00 0.00 0.00 0.00 0.00 0.00 0.00 0.00 0.00 0.00 0.00 0.00 0.00 0.00 0.00 0.00 0.00 0.00 0.00 0.00 0.00 0.00 0.00
0.00 0.00 0.00 0.00 0.00 0.00 0.00 0.00 0.00 0.00 0.00 0.00 0.00 0.00 0.00 0.00 0.00 0.00 0.00 0.00 0.00 0.00 0.00 0.00 0.00 0.00 0.00 0.00 0.00 0.00 0.00 0.00 0.00 0.00 0.00 0.00 0.00 0.00 0.00 0.00 0.00 0.00 0.00 0.00
MSLP
1019.22 1019.25 1018.25 1017.84 1017.55 1017.32 1017.15 1016.75 1016.03 1015.07 1014.37 1014.03 1013.64 1013.16 1012.59 1011.79 1011.12 1010.42 1010.20 1009.80 1009.71 1009.49 1008.92 1009.18 1009.62 1010.41 1011.49 1012.66 1013.34 1013.87 1014.66 1015.20 1016.01 1016.69 1017.22 1017.65 1018.07 1018.46 1018.88 1019.11 1019.40 1019.82 1020.19 1020.35
1019.41 1018.76 1018.30 1018.18 1018.02 1018.00 1017.83 1017.45 1016.89 1015.96 1015.23 1015.13 1014.20 1013.02 1012.46 1011.55 1010.69 1010.20 1009.98 1009.68 1009.63 1009.55 1009.12 1008.85 1009.44 1010.04 1010.99 1011.78 1012.67 1013.32 1014.00 1014.65 1015.36 1016.12 1016.67 1017.16 1017.69 1018.03 1018.27 1018.62 1018.86 1019.20 1019.82 1020.21
1019.48 1018.73 1018.38 1018.16 1018.14 1018.03 1017.84 1017.63 1017.40 1017.01 1016.24 1015.86 1014.89 1013.04 1011.25 1010.09 1009.94 1010.08 1009.84 1009.74 1009.76 1009.86 1009.62 1009.12 1009.28 1009.60 1010.27 1011.19 1011.98 1012.69 1013.54 1014.11 1014.70 1015.61 1016.50 1016.92 1017.35 1017.69 1017.90 1018.09 1018.61 1018.75 1019.06 1019.57
1019.31 1018.66 1018.57 1018.40 1018.13 1017.94 1018.00 1017.84 1017.94 1017.75 1017.58 1016.95 1016.23 1014.64 1011.70 1010.30 1009.60 1009.69 1009.72 1009.84 1009.75 1009.86 1009.53 1009.23 1009.06 1009.50 1009.72 1010.34 1011.05 1011.60 1012.61 1013.50 1013.93 1014.76 1015.68 1016.21 1016.59 1016.77 1016.92 1017.40 1017.85 1018.11 1018.54 1018.91
1019.82 1019.06 1018.88 1018.66 1018.27 1018.25 1018.36 1018.60 1018.64 1018.56 1018.29 1018.05 1017.10 1016.38 1011.96 1010.72 1010.22 1009.80 1009.54 1009.38 1009.45 1009.41 1009.47 1009.57 1009.14 1008.89 1009.25 1009.65 1010.33 1010.92 1011.44 1012.39 1013.31 1014.29 1013.93 1015.34 1015.93 1016.10 1016.56 1017.13 1017.54 1017.75 1017.96 1018.33
1020.44 1019.61 1019.54 1019.09 1018.75 1018.63 1018.85 1019.13 1018.79 1018.76 1019.02 1018.56 1016.79 1015.90 1012.48 1011.41 1011.22 1010.82 1010.29 1010.02 1009.77 1009.57 1009.18 1009.08 1008.79 1008.77 1008.54 1008.88 1009.62 1010.48 1011.18 1011.45 1012.23 1012.91 1013.76 1014.01 1014.86 1015.38 1015.87 1016.31 1016.78 1017.10 1017.44 1017.80
1020.13 1019.32 1019.54 1019.56 1019.34 1018.98 1019.38 1019.76 1019.59 1019.68 1019.65 1018.41 1016.44 1015.97 1013.45 1012.42 1011.96 1011.88 1011.52 1011.06 1010.57 1010.24 1009.92 1009.53 1009.02 1008.69 1008.31 1008.44 1008.79 1009.39 1010.30 1010.87 1011.33 1012.20 1012.76 1013.28 1013.77 1014.55 1014.98 1015.36 1016.05 1016.56 1016.83 1017.16
1021.70 1020.18 1019.65 1019.99 1019.99 1019.88 1020.11 1020.38 1020.43 1020.30 1019.92 1018.44 1016.90 1015.23 1013.39 1012.95 1013.16 1013.19 1013.06 1012.61 1012.18 1011.54 1010.88 1010.20 1009.62 1009.07 1008.47 1007.60 1007.78 1008.31 1009.20 1010.03 1010.38 1011.10 1011.71 1012.57 1013.25 1013.72 1014.04 1014.52 1015.26 1015.74 1016.05 1016.14
1022.86 1021.24 1020.24 1020.32 1020.38 1020.58 1020.70 1020.86 1020.74 1020.76 1019.90 1019.32 1017.02 1014.88 1013.82 1014.22 1014.62 1015.04 1014.85 1014.45 1013.17 1012.53 1011.99 1011.43 1010.54 1009.73 1009.11 1008.19 1007.19 1007.13 1008.07 1009.14 1009.74 1010.08 1010.92 1011.60 1012.27 1012.84 1013.18 1013.48 1014.08 1014.46 1014.76 1015.13
1023.84 1022.82 1021.44 1021.11 1021.07 1021.11 1021.25 1021.48 1021.06 1020.99 1020.75 1019.54 1017.21 1016.50 1016.32 1016.69 1016.81 1016.87 1016.60 1015.93 1015.12 1013.98 1013.15 1012.54 1011.65 1011.09 1010.42 1009.43 1007.54 1007.07 1007.52 1008.24 1009.00 1009.55 1009.91 1010.43 1011.06 1011.97 1012.59 1013.05 1013.31 1013.21 1013.63 1014.11
1023.64 1023.85 1022.31 1021.82 1021.45 1021.19 1021.53 1021.31 1021.17 1020.85 1020.80 1020.42 1019.45 1018.43 1018.99 1018.93 1018.79 1018.23 1017.93 1017.26 1016.66 1015.69 1014.58 1013.87 1013.03 1012.25 1011.75 1010.97 1008.93 1007.48 1007.56 1008.32 1008.95 1009.21 1009.49 1009.92 1009.74 1010.97 1011.79 1012.28 1012.55 1012.73 1012.92 1013.32
1023.83 1023.88 1023.04 1021.83 1021.34 1021.28 1021.19 1021.17 1021.11 1020.95 1020.83 1020.70 1020.71 1019.70 1019.80 1020.00 1020.07 1019.70 1018.89 1018.24 1017.88 1017.09 1016.10 1015.05 1014.43 1013.77 1013.05 1012.27 1010.86 1010.21 1009.61 1009.90 1009.54 1008.92 1009.35 1009.59 1009.74 1009.87 1010.69 1011.46 1011.63 1012.16 1012.39 1012.60
1024.02 1023.90 1023.17 1021.97 1022.05 1021.46 1021.53 1021.68 1021.62 1021.20 1020.85 1020.51 1021.10 1019.83 1019.98 1020.30 1020.56 1020.25 1019.57 1019.26 1018.79 1018.14 1017.39 1016.18 1015.73 1014.64 1013.95 1013.10 1012.18 1011.60 1011.21 1011.25 1011.07 1010.40 1009.61 1009.65 1009.81 1009.78 1010.22 1010.71 1011.03 1011.48 1011.86 1011.87
1023.94 1024.01 1023.67 1023.17 1022.63 1022.35 1022.07 1021.79 1021.64 1021.56 1021.07 1020.59 1020.51 1020.08 1020.55 1020.91 1021.08 1020.79 1020.40 1020.01 1019.25 1018.81 1018.46 1018.06 1016.97 1015.32 1014.66 1013.72 1013.18 1013.09 1012.92 1012.74 1012.65 1012.23 1011.91 1011.81 1011.70 1011.57 1011.30 1010.77 1010.82 1011.02 1011.28 1011.44
1023.78 1023.87 1023.48 1022.83 1022.54 1022.35 1022.27 1021.84 1021.68 1021.67 1021.40 1020.87 1021.00 1021.39 1021.96 1021.99 1021.94 1021.74 1021.25 1020.75 1020.25 1019.77 1019.12 1018.96 1017.56 1016.48 1015.86 1014.97 1014.83 1014.77 1014.60 1014.22 1014.04 1013.74 1013.54 1013.82 1013.63 1013.06 1012.60 1012.38 1012.14 1011.97 1011.75 1011.26
1024.06 1023.84 1023.50 1022.56 1022.31 1022.40 1022.30 1022.12 1021.82 1021.65 1021.44 1021.15 1021.33 1021.85 1022.31 1022.43 1022.22 1021.71 1021.43 1021.17 1020.76 1020.29 1019.66 1018.93 1018.80 1017.95 1016.96 1016.53 1016.38 1016.31 1016.05 1015.57 1015.19 1015.02 1015.37 1015.36 1014.81 1014.30 1014.07 1013.83 1013.36 1013.06 1012.91 1012.58
1024.55 1024.50 1023.94 1022.71 1022.47 1022.51 1022.36 1022.20 1022.15 1021.97 1022.06 1021.91 1021.89 1022.37 1022.46 1022.45 1022.24 1022.27 1022.10 1021.80 1021.66 1021.56 1021.32 1020.52 1019.96 1019.01 1018.36 1018.09 1017.89 1017.42 1017.08 1016.76 1016.28 1016.21 1016.53 1016.39 1016.07 1015.63 1015.21 1015.12 1014.70 1014.14 1013.98 1013.62
1025.03 1024.90 1024.47 1023.32 1022.56 1022.25 1021.68 1021.71 1021.82 1021.93 1022.13 1022.13 1022.09 1022.20 1022.28 1022.12 1022.17 1022.23 1022.34 1022.53 1022.76 1022.73 1022.60 1022.32 1021.74 1020.75 1019.98 1019.44 1018.65 1018.42 1017.93 1017.60 1017.36 1017.23 1017.40 1017.36 1016.90 1016.47 1016.17 1015.92 1015.59 1015.36 1014.96 1014.62
1025.38 1025.16 1024.61 1023.84 1022.68 1021.91 1021.46 1021.31 1021.43 1021.26 1021.70 1021.72 1021.70 1021.54 1021.47 1021.20 1021.34 1022.09 1022.47 1022.79 1023.04 1023.24 1023.15 1022.82 1022.27 1021.71 1021.03 1020.38 1019.90 1019.37 1018.89 1018.64 1018.41 1018.46 1018.32 1017.97 1017.50 1016.89 1016.87 1016.66 1016.45 1016.04 1015.70 1015.35
1025.50 1025.34 1025.25 1024.17 1023.15 1021.74 1020.75 1020.73 1021.00 1020.97 1021.02 1020.66 1020.90 1020.99 1021.19 1020.98 1021.29 1022.17 1022.48 1022.88 1023.10 1023.33 1023.31 1023.07 1022.79 1022.45 1021.96 1021.64 1020.97 1020.49 1020.32 1020.10 1020.00 1019.89 1019.55 1018.90 1018.32 1018.02 1017.88 1017.64 1017.02 1016.47 1016.46 1015.69
1026.16 1025.76 1025.09 1024.07 1023.10 1021.27 1020.48 1020.53 1020.85 1020.97 1020.89 1020.21 1020.58 1020.86 1021.25 1021.43 1021.90 1022.12 1022.26 1022.57 1022.87 1023.27 1023.41 1023.42 1023.24 1023.15 1023.15 1022.67 1022.09 1021.73 1021.68 1021.37 1021.21 1020.52 1020.08 1019.46 1019.08 1018.85 1018.83 1018.23 1017.55 1017.33 1016.75 1016.05
1025.66 1025.17 1024.51 1023.98 1022.91 1021.28 1020.38 1020.77 1020.79 1020.29 1020.20 1020.33 1020.45 1020.69 1020.95 1021.30 1021.58 1021.93 1022.31 1022.71 1023.04 1023.51 1023.90 1024.02 1023.95 1023.93 1023.84 1023.50 1023.10 1022.89 1022.52 1022.39 1021.80 1020.98 1020.25 1020.02 1019.74 1019.62 1019.04 1018.57 1018.40 1018.03 1017.42 1016.83
1025.33 1024.16 1023.61 1022.79 1021.13 1020.06 1019.90 1019.84 1019.81 1019.89 1020.04 1020.43 1020.61 1020.84 1020.98 1021.36 1021.74 1022.19 1022.60 1023.07 1023.65 1024.16 1024.49 1024.69 1024.59 1024.42 1024.22 1024.04 1023.91 1023.65 1023.50 1022.95 1022.34 1021.68 1021.36 1020.89 1020.27 1019.90 1019.37 1018.98 1018.67 1018.27 1017.63 1017.13
1024.25 1023.72 1023.88 1022.95 1020.38 1020.00 1019.90 1019.82 1019.91 1020.13 1020.27 1020.51 1020.66 1020.95 1021.25 1021.63 1022.18 1022.56 1023.03 1023.53 1024.13 1024.66 1025.01 1025.16 1025.29 1025.28 1025.13 1024.75 1024.47 1024.29 1023.84 1023.18 1022.49 1022.01 1021.71 1021.33 1020.87 1020.26 1019.76 1019.57 1019.09 1018.60 1018.07 1017.68
1023.71 1023.71 1023.17 1022.48 1020.91 1020.53 1019.85 1019.60 1019.77 1020.26 1020.59 1020.91 1021.11 1021.36 1021.72 1022.10 1022.46 1022.91 1023.47 1023.96 1024.48 1024.92 1025.25 1025.40 1025.47 1025.59 1025.53 1025.18 1025.05 1024.87 1024.44 1023.86 1023.18 1022.51 1022.01 1021.48 1021.03 1020.67 1020.25 1019.92 1019.63 1019.28 1019.00 1018.65
1022.10 1021.39 1021.60 1020.52 1019.48 1019.36 1018.80 1018.74 1019.62 1020.37 1020.77 1021.13 1021.58 1022.16 1022.55 1022.83 1023.27 1023.76 1024.26 1024.62 1025.01 1025.39 1025.60 1025.96 1025.98 1026.18 1026.17 1025.91 1025.72 1025.34 1024.74 1024.24 1023.77 1023.08 1022.82 1022.43 1021.92 1021.34 1020.70 1020.22 1019.81 1019.54 1019.21 1018.79
Thickness
5522 5515 5532 5535 5540 5541 5541 5542 5547 5558 5571 5574 5576 5582 5593 5606 5612 5622 5630 5636 5640 5647 5662 5667 5667 5667 5659 5652 5654 5654 5652 5650 5647 5644 5643 5644 5646 5646 5646 5647 5646 5644 5643 5645
5518 5520 5528 5528 5529 5526 5527 5528 5532 5548 5560 5558 5567 5580 5589 5602 5611 5618 5624 5631 5632 5637 5647 5655 5658 5659 5655 5652 5651 5651 5650 5649 5646 5643 5642 5641 5639 5641 5641 5642 5643 5642 5639 5638
5508 5520 5524 5524 5523 5523 5525 5525 5526 5532 5544 5548 5555 5573 5592 5609 5613 5612 5617 5620 5622 5621 5627 5640 5643 5655 5655 5650 5647 5648 5645 5645 5644 5640 5636 5636 5634 5636 5639 5642 5641 5640 5638 5634
5515 5521 5516 5515 5518 5524 5517 5526 5523 5525 5523 5518 5542 5522 5584 5600 5607 5602 5603 5606 5609 5611 5620 5630 5637 5640 5649 5648 5647 5647 5644 5640 5641 5639 5635 5634 5633 5635 5639 5637 5635 5635 5632 5631
5508 5512 5506 5507 5514 5517 5516 5512 5514 5515 5518 5515 5527 5500 5568 5591 5588 5595 5597 5599 5603 5608 5609 5613 5625 5632 5640 5644 5641 5642 5644 5641 5637 5633 5640 5633 5632 5636 5634 5631 5630 5631 5629 5629
5493 5505 5501 5505 5509 5510 5509 5503 5509 5515 5508 5495 5514 5519 5552 5569 5566 5571 5581 5585 5589 5597 5602 5606 5614 5621 5628 5639 5636 5634 5634 5637 5636 5636 5632 5633 5632 5632 5631 5630 5629 5628 5627 5626
5502 5510 5502 5500 5495 5505 5498 5486 5459 5484 5473 5458 5531 5511 5535 5543 5551 5552 5559 5565 5571 5576 5585 5592 5598 5606 5618 5625 5634 5634 5633 5631 5633 5632 5633 5633 5635 5629 5630 5630 5627 5625 5623 5622
5477 5479 5508 5498 5493 5492 5484 5487 5462 5473 5483 5487 5521 5510 5526 5533 5531 5529 5531 5538 5546 5554 5564 5576 5587 5594 5608 5621 5630 5633 5631 5629 5632 5633 5633 5630 5630 5629 5629 5629 5626 5624 5622 5622
5469 5479 5503 5496 5489 5487 5476 5480 5485 5478 5472 5475 5508 5535 5540 5517 5508 5499 5498 5504 5522 5531 5540 5550 5566 5579 5587 5600 5619 5635 5631 5628 5629 5632 5628 5629 5629 5628 5629 5630 5627 5625 5626 5623
5458 5468 5469 5483 5480 5476 5475 5472 5480 5461 5441 5456 5489 5515 5508 5480 5476 5469 5469 5474 5484 5497 5509 5523 5541 5553 5565 5583 5607 5625 5627 5627 5626 5628 5627 5630 5631 5629 5626 5624 5626 5629 5627 5624
5458 5461 5471 5473 5475 5483 5471 5473 5475 5483 5477 5465 5462 5477 5467 5459 5456 5455 5453 5455 5458 5469 5482 5489 5507 5523 5539 5554 5580 5607 5616 5616 5617 5622 5622 5625 5632 5625 5622 5622 5624 5625 5625 5620
5458 5460 5462 5481 5478 5477 5480 5476 5476 5471 5472 5466 5464 5473 5455 5450 5444 5442 5443 5445 5440 5442 5450 5464 5474 5490 5512 5528 5551 5568 5583 5590 5601 5614 5616 5619 5622 5626 5623 5620 5621 5620 5621 5620
5455 5463 5466 5485 5472 5477 5469 5470 5464 5469 5468 5473 5468 5470 5459 5453 5443 5441 5441 5433 5429 5432 5432 5446 5455 5472 5491 5510 5532 5547 5558 5566 5575 5590 5608 5612 5615 5619 5618 5616 5616 5615 5614 5617
5454 5454 5463 5473 5474 5468 5454 5457 5465 5460 5468 5474 5475 5464 5454 5447 5443 5440 5435 5429 5428 5422 5426 5434 5448 5469 5485 5502 5516 5526 5534 5546 5553 5564 5573 5580 5586 5593 5599 5608 5609 5609 5609 5610
5460 5455 5463 5463 5467 5468 5464 5457 5453 5457 5464 5472 5458 5448 5441 5438 5435 5432 5431 5431 5431 5432 5433 5436 5449 5462 5474 5490 5499 5506 5514 5527 5536 5545 5552 5554 5561 5571 5577 5582 5588 5591 5594 5600
5456 5456 5457 5454 5459 5465 5465 5463 5461 5447 5456 5468 5459 5442 5435 5434 5430 5432 5431 5432 5436 5437 5438 5438 5442 5457 5472 5481 5488 5493 5501 5512 5521 5528 5529 5534 5543 5550 5554 5559 5565 5569 5572 5576
5447 5445 5453 5482 5466 5452 5465 5454 5455 5459 5452 5453 5452 5442 5437 5434 5435 5430 5428 5431 5430 5431 5431 5435 5443 5454 5460 5469 5475 5483 5490 5499 5508 5514 5514 5519 5525 5531 5536 5538 5543 5548 5552 5554
5444 5443 5446 5451 5443 5461 5462 5459 5457 5457 5448 5445 5447 5441 5437 5440 5440 5437 5434 5430 5424 5421 5422 5425 5431 5442 5452 5459 5469 5474 5481 5488 5495 5500 5501 5503 5509 5515 5519 5522 5525 5528 5531 5535
5446 5445 5445 5458 5452 5465 5466 5465 5454 5460 5458 5451 5448 5451 5451 5455 5455 5441 5434 5431 5425 5420 5419 5422 5428 5434 5443 5449 5456 5463 5469 5474 5480 5482 5486 5490 5495 5502 5504 5506 5507 5510 5513 5515
5453 5446 5443 5451 5469 5450 5482 5471 5464 5466 5461 5462 5462 5463 5455 5457 5459 5444 5438 5433 5429 5425 5424 5426 5428 5430 5434 5437 5447 5452 5455 5459 5462 5465 5469 5475 5481 5484 5485 5487 5491 5495 5493 5499
5409 5427 5442 5462 5466 5472 5477 5471 5466 5463 5474 5469 5466 5463 5456 5454 5448 5445 5443 5439 5437 5432 5430 5430 5431 5431 5428 5431 5437 5441 5442 5445 5447 5454 5458 5463 5466 5467 5466 5471 5476 5476 5479 5482
5435 5419 5417 5425 5435 5446 5473 5465 5469 5475 5471 5469 5468 5463 5460 5453 5452 5451 5447 5442 5439 5435 5429 5428 5429 5429 5428 5430 5435 5437 5438 5436 5440 5446 5453 5454 5455 5454 5458 5460 5460 5460 5463 5466
5426 5460 5452 5466 5477 5481 5475 5477 5474 5472 5472 5466 5466 5462 5463 5460 5457 5453 5448 5443 5435 5430 5427 5425 5425 5426 5426 5427 5428 5431 5430 5433 5436 5441 5442 5445 5449 5450 5452 5453 5454 5455 5458 5459
5462 5462 5442 5449 5481 5477 5476 5475 5471 5467 5469 5464 5464 5462 5461 5459 5454 5453 5444 5439 5434 5426 5423 5420 5419 5419 5421 5423 5424 5423 5425 5429 5433 5438 5438 5438 5440 5443 5445 5443 5445 5447 5448 5448
5456 5450 5443 5451 5470 5470 5475 5476 5474 5467 5463 5460 5459 5458 5454 5452 5452 5446 5440 5437 5431 5425 5420 5416 5421 5420 5415 5418 5418 5418 5421 5424 5428 5432 5434 5434 5435 5435 5436 5437 5435 5435 5434 5434
5467 5468 5466 5480 5493 5497 5504 5487 5481 5470 5466 5462 5457 5451 5447 5445 5441 5433 5427 5425 5423 5419 5416 5413 5415 5411 5411 5413 5413 5414 5417 5419 5420 5425 5423 5421 5422 5423 5425 5423 5422 5424 5422 5421